Stations météo

réclame
Mon MeteoGroup
Manschnow, Allemagne (10396): Température de l'air & dewpoint: 17.05.2018 22:00:00 - 23.05.2018 22:00:00 (CEST)Manschnow, Allemagne (10396): Température de l'air 5cm & Température de l'air -5cm: 17.05.2018 22:00:00 - 23.05.2018 22:00:00 (CEST)Manschnow, Allemagne (10396): Température de l'air -20cm & Température de l'air -100cm: 17.05.2018 22:00:00 - 23.05.2018 22:00:00 (CEST)Manschnow, Allemagne (10396): Vitesse du vent & gusts: 17.05.2018 22:00:00 - 23.05.2018 22:00:00 (CEST)Manschnow, Allemagne (10396): Direction du vent: 17.05.2018 22:00:00 - 23.05.2018 22:00:00 (CEST)Manschnow, Allemagne (10396): reduced air pressure: 17.05.2018 22:00:00 - 23.05.2018 22:00:00 (CEST)Manschnow, Allemagne (10396): visibility: 17.05.2018 22:00:00 - 23.05.2018 22:00:00 (CEST)Manschnow, Allemagne (10396): Ensoleillement: 17.05.2018 22:00:00 - 23.05.2018 22:00:00 (CEST)Manschnow, Allemagne (10396): Quantités de précipitations: 17.05.2018 22:00:00 - 23.05.2018 22:00:00 (CEST)
Date & Time tt [°C] td [°C] tt 5cm [°C] tt -5cm [°C] tt -20cm [°C] tt -100cm [°C] ff [km/h] ff [knt] fx [km/h] fx [knt] dd ppp [hPa] vv [km] sd [min] rr [mm]
23.05.2018 22:00:00 20,0 9,5 17,8 24,1 23,8 15,0 8 5 16 8 NE 1022,9 20 0 0,0
23.05.2018 21:00:00 21,4 9,5 19,9 25,6 24,1 15,0 8 4 23 12 NNE 1022,0 24 0 0,0
23.05.2018 20:00:00 22,9 9,1 22,1 27,4 24,2 15,0 13 7 27 15 NNE 1021,4 28 29 0,0
23.05.2018 19:00:00 23,8 9,1 24,0 29,3 24,2 15,0 15 8 27 15 NNE 1021,0 23 51 0,0
23.05.2018 18:00:00 24,9 8,9 26,7 31,1 23,9 14,9 14 8 25 13 NNE 1020,9 14 60 0,0
23.05.2018 17:00:00 25,7 8,2 29,7 32,3 23,4 14,9 13 7 23 12 NE 1021,0 12 60 0,0
23.05.2018 16:00:00 25,7 8,0 30,4 32,6 22,8 14,9 12 7 26 14 NNE 1021,2 8 60 0,0
23.05.2018 15:00:00 24,8 6,3 31,7 32,2 22,1 14,9 10 5 26 14 NNE 1021,7 15 60 0,0
23.05.2018 14:00:00 25,2 7,2 30,6 31,1 21,3 14,9 12 6 26 14 E 1021,8 13 60 0,0
23.05.2018 13:00:00 24,9 6,8 30,5 29,7 20,6 14,9 16 9 29 15 E 1021,9 11 60 0,0
23.05.2018 12:00:00 23,5 9,3 30,6 27,7 19,9 14,9 11 6 24 13 ENE 1021,6 9 60 0,0
23.05.2018 11:00:00 22,3 9,8 26,4 25,7 19,3 14,9 15 8 26 14 E 1021,5 7 60 0,0
23.05.2018 10:00:00 21,6 9,7 26,9 23,1 19,0 14,9 11 6 22 12 NE 1021,2 16 60 0,0
23.05.2018 09:00:00 18,6 9,9 22,4 20,3 18,8 14,9 10 5 18 10 ENE 1021,2 16 60 0,0
23.05.2018 08:00:00 15,8 9,3 19,2 18,2 18,9 14,9 9 5 16 9 NE 1020,8 14 60 0,0
23.05.2018 07:00:00 13,0 10,0 14,8 16,3 19,2 14,8 2 1 5 3 N 1020,2 16 60 0,0
23.05.2018 06:00:00 9,0 8,2 7,0 15,7 19,6 14,8 3 2 5 3 NNW 1019,7 13 26 0,0
23.05.2018 05:00:00 8,4 7,7 5,5 16,2 20,0 14,8 2 1 7 4 N 1019,0 13 0 0,0
23.05.2018 04:00:00 9,2 7,6 6,6 16,9 20,4 14,8 4 2 8 5 NNW 1018,7 18 0 0,0
23.05.2018 03:00:00 9,5 7,0 7,3 17,7 20,9 14,8 6 4 8 5 WNW 1018,4 20 0 0,0
23.05.2018 02:00:00 11,4 7,7 8,2 18,5 21,4 14,8 2 1 8 4 NE 1018,2 21 0 0,0
23.05.2018 01:00:00 14,3 8,5 8,8 19,4 21,9 14,8 5 3 13 7 E 1018,1 17 0 0,0
23.05.2018 00:00:00 15,0 8,2 10,4 20,4 22,3 14,8 4 2 12 7 ENE 1017,7 19 0 0,0
22.05.2018 23:00:00 17,1 7,4 12,3 21,6 22,8 14,8 6 4 12 7 ENE 1017,0 21 0 0,0
22.05.2018 22:00:00 18,3 8,0 14,7 23,1 23,2 14,8 6 4 10 5 NE 1016,5 19 0 0,0
22.05.2018 21:00:00 20,2 8,1 16,5 25,0 23,5 14,8 5 3 11 6 NE 1015,8 20 41 0,0
22.05.2018 20:00:00 22,2 7,2 22,2 27,0 23,7 14,8 7 4 22 12 ENE 1015,5 29 60 0,0
22.05.2018 19:00:00 22,9 7,0 24,5 29,1 23,6 14,8 11 6 22 12 ENE 1015,2 19 60 0,0
22.05.2018 18:00:00 23,5 6,3 27,0 30,6 23,3 14,8 10 5 29 16 ENE 1015,1 14 60 0,0
22.05.2018 17:00:00 23,7 6,1 27,9 31,6 22,8 14,8 12 6 23 12 ENE 1015,2 14 60 0,0
22.05.2018 16:00:00 23,5 5,0 30,4 31,9 22,1 14,8 9 5 25 13 NE 1015,3 11 60 0,0
22.05.2018 15:00:00 24,4 5,8 29,7 31,5 21,4 14,7 10 5 29 16 E 1015,6 21 58 0,0
22.05.2018 14:00:00 23,3 4,7 29,8 30,4 20,6 14,7 12 6 25 14 E 1015,6 12 60 0,0
22.05.2018 13:00:00 23,5 6,4 29,4 28,9 19,8 14,7 13 7 30 16 NE 1015,9 11 58 0,0
22.05.2018 12:00:00 22,0 6,5 27,5 27,0 19,1 14,7 11 6 22 12 ENE 1016,1 7 60 0,0
22.05.2018 11:00:00 21,2 6,4 26,1 24,7 18,5 14,7 10 6 19 11 ENE 1016,6 12 60 0,0
22.05.2018 10:00:00 19,7 8,4 24,1 22,1 18,1 14,7 8 4 14 7 E 1016,7 13 60 0,0
22.05.2018 09:00:00 16,1 8,7 20,0 19,3 17,9 14,7 10 5 15 8 E 1017,0 11 60 0,0
22.05.2018 08:00:00 14,0 8,0 16,8 17,1 18,0 14,7 8 4 17 9 E 1016,8 13 60 0,0
22.05.2018 07:00:00 12,3 7,4 13,5 15,6 18,3 14,7 9 5 18 10 E 1016,7 13 55 0,0
22.05.2018 06:00:00 10,6 7,0 9,4 15,2 18,6 14,7 8 5 16 9 ENE 1016,6 17 2 0,0
22.05.2018 05:00:00 10,7 7,2 8,2 15,7 19,0 14,7 5 3 16 9 E 1016,8 18 0 0,0
22.05.2018 04:00:00 11,4 7,1 9,0 16,2 19,4 14,7 5 3 15 8 ENE 1016,8 21 0 0,0
22.05.2018 03:00:00 11,9 7,0 9,6 16,8 19,8 14,7 6 3 13 7 ENE 1017,1 28 0 0,0
22.05.2018 02:00:00 12,5 6,9 10,5 17,4 20,2 14,7 8 4 14 7 ENE 1017,3 22 0 0,0
22.05.2018 01:00:00 13,3 7,2 11,2 18,2 20,7 14,7 8 4 13 7 ENE 1017,7 20 0 0,0
22.05.2018 00:00:00 14,2 7,5 11,2 19,1 21,2 14,7 7 4 12 6 ENE 1018,0 21 0 0,0
21.05.2018 23:00:00 15,1 7,2 10,7 20,2 21,6 14,7 8 4 11 6 E 1018,2 22 0 0,0
21.05.2018 22:00:00 17,0 6,7 14,1 21,6 22,0 14,7 9 5 15 8 E 1018,4 18 0 0,0
21.05.2018 21:00:00 18,7 6,8 15,9 23,3 22,3 14,7 9 5 18 10 E 1018,3 20 23 0,0
21.05.2018 20:00:00 21,2 5,9 20,4 25,3 22,3 14,7 12 6 29 16 ESE 1018,1 28 52 0,0
21.05.2018 19:00:00 22,6 5,1 23,9 27,0 22,3 14,7 17 9 31 17 ESE 1018,2 18 58 0,0
21.05.2018 18:00:00 23,4 4,8 26,0 28,2 22,0 14,7 15 8 31 17 ESE 1018,5 15 53 0,0
21.05.2018 17:00:00 23,2 5,0 26,5 28,8 21,6 14,7 16 9 32 17 E 1019,0 15 47 0,0
21.05.2018 16:00:00 22,8 5,3 25,4 29,5 21,0 14,6 18 10 37 20 E 1019,7 21 58 0,0
21.05.2018 15:00:00 22,9 5,9 28,3 28,9 20,3 14,6 18 10 34 19 ENE 1020,3 6 57 0,0
21.05.2018 14:00:00 23,3 5,1 28,7 28,2 19,6 14,6 21 11 38 21 E 1021,1 8 60 0,0
21.05.2018 13:00:00 22,6 6,1 28,1 26,6 19,0 14,6 16 8 35 19 E 1021,8 9 55 0,0
21.05.2018 12:00:00 21,7 6,5 26,2 24,9 18,3 14,6 19 10 34 18 E 1022,6 11 47 0,0
21.05.2018 11:00:00 19,7 10,0 24,3 23,2 17,8 14,6 13 7 25 13 ENE 1023,5 9 60 0,0
21.05.2018 10:00:00 16,9 9,1 21,5 20,6 17,4 14,6 12 7 21 11 E 1024,1 9 60 0,0
21.05.2018 09:00:00 14,5 7,9 18,1 18,1 17,3 14,6 13 7 26 14 E 1024,5 9 60 0,0
21.05.2018 08:00:00 12,3 6,7 14,5 16,2 17,4 14,6 16 9 26 14 ENE 1024,6 7 60 0,0
21.05.2018 07:00:00 11,3 6,2 12,2 14,9 17,6 14,6 13 7 27 15 ENE 1024,8 7 60 0,0
21.05.2018 06:00:00 10,2 6,0 9,1 14,5 18,0 14,6 13 7 21 12 E 1024,6 17 22 0,0
21.05.2018 05:00:00 9,4 5,9 7,9 14,8 18,3 14,6 11 6 20 11 ENE 1024,7 23 0 0,0
21.05.2018 04:00:00 10,2 5,0 8,8 15,2 18,8 14,6 12 7 20 11 ENE 1025,0 29 0 0,0
21.05.2018 03:00:00 10,1 4,0 6,8 15,6 19,2 14,6 7 4 16 9 ENE 1024,8 29 0 0,0
21.05.2018 02:00:00 9,7 4,9 5,0 16,3 19,7 14,6 2 1 8 4 ENE 1024,8 25 0 0,0
21.05.2018 01:00:00 11,6 4,4 7,4 17,2 20,2 14,6 6 3 13 7 ENE 1025,0 26 0 0,0
21.05.2018 00:00:00 13,0 4,9 9,3 18,2 20,7 14,6 7 4 12 6 ENE 1024,9 45 0 0,0
20.05.2018 23:00:00 14,1 6,5 10,0 19,3 21,2 14,6 8 4 13 7 ENE 1024,9 20 0 0,0
20.05.2018 22:00:00 15,8 6,0 11,0 20,9 21,6 14,6 8 5 13 7 E 1024,8 21 0 0,0
20.05.2018 21:00:00 18,0 5,0 14,7 22,8 21,9 14,6 6 4 17 9 ENE 1024,4 22 33 0,0
20.05.2018 20:00:00 20,2 2,8 19,9 24,9 22,0 14,6 9 5 22 12 ENE 1024,0 21 60 0,0
20.05.2018 19:00:00 21,6 1,6 23,1 26,7 21,9 14,6 13 7 25 13 ENE 1024,1 23 60 0,0
20.05.2018 18:00:00 21,8 0,7 24,6 28,1 21,6 14,6 13 7 26 14 NE 1024,2 17 60 0,0
20.05.2018 17:00:00 22,0 0,8 25,4 28,9 21,1 14,6 13 7 26 14 ENE 1024,7 17 60 0,0
20.05.2018 16:00:00 21,8 2,0 26,7 29,2 20,5 14,6 13 7 23 13 NE 1025,1 15 60 0,0
20.05.2018 15:00:00 20,8 1,3 25,6 28,9 19,7 14,6 16 8 29 16 ENE 1025,6 14 60 0,0
20.05.2018 14:00:00 20,5 1,7 26,4 27,9 18,9 14,6 14 7 26 14 E 1026,0 16 60 0,0
20.05.2018 13:00:00 19,8 1,6 26,3 26,1 18,1 14,6 12 6 27 15 NE 1026,3 16 60 0,0
20.05.2018 12:00:00 18,9 0,4 23,9 24,3 17,4 14,6 16 8 29 15 ENE 1026,8 10 60 0,0
20.05.2018 11:00:00 18,4 5,7 22,8 22,1 16,8 14,6 13 7 23 12 E 1026,9 15 60 0,0
20.05.2018 10:00:00 15,8 5,1 20,1 19,5 16,5 14,6 11 6 21 12 ENE 1026,9 14 60 0,0
20.05.2018 09:00:00 13,9 5,9 17,4 16,8 16,3 14,6 11 6 23 13 E 1026,8 11 60 0,0
20.05.2018 08:00:00 11,1 5,1 13,4 14,8 16,4 14,6 13 7 23 12 ENE 1026,3 11 60 0,0
20.05.2018 07:00:00 9,3 4,9 10,7 13,1 16,7 14,6 8 4 12 7 ENE 1026,0 21 60 0,0
20.05.2018 06:00:00 3,9 2,0 2,4 12,5 17,1 14,6 3 2 7 4 NNE 1025,7 23 24 0,0
20.05.2018 05:00:00 4,4 2,8 1,1 13,0 17,6 14,6 3 1 5 3 WNW 1025,2 28 0 0,0
20.05.2018 04:00:00 5,0 2,9 1,1 13,8 18,1 14,6 3 2 10 6 E 1024,8 33 0 0,0
20.05.2018 03:00:00 5,5 2,4 2,4 14,6 18,5 14,6 4 2 10 5 N 1024,6 33 0 0,0
20.05.2018 02:00:00 7,0 2,2 3,9 15,5 19,0 14,6 5 3 12 7 N 1024,6 31 0 0,0
20.05.2018 01:00:00 10,6 2,4 7,5 16,4 19,5 14,6 7 4 14 8 NNE 1024,5 36 0 0,0
20.05.2018 00:00:00 11,3 1,7 7,6 17,5 20,0 14,7 6 3 16 9 NNE 1024,2 35 0 0,0
19.05.2018 23:00:00 12,9 2,3 10,4 18,7 20,5 14,7 10 5 16 9 NNE 1023,7 36 0 0,0
19.05.2018 22:00:00 14,6 3,5 12,0 20,2 20,9 14,7 9 5 18 10 NNE 1023,1 35 0 0,0
19.05.2018 21:00:00 16,3 4,1 14,1 22,0 21,1 14,7 9 5 21 11 N 1022,4 38 30 0,0
19.05.2018 20:00:00 18,3 4,8 18,6 24,0 21,2 14,7 10 5 27 14 N 1022,0 21 60 0,0
19.05.2018 19:00:00 19,9 4,5 22,0 25,8 21,1 14,7 13 7 30 16 N 1021,7 34 60 0,0
19.05.2018 18:00:00 21,0 5,7 23,9 27,1 20,7 14,7 11 6 28 15 NNE 1021,5 29 60 0,0
19.05.2018 17:00:00 21,2 5,8 25,2 27,8 20,2 14,7 13 7 27 15 NNE 1021,5 13 60 0,0
19.05.2018 16:00:00 21,8 5,4 26,8 27,8 19,6 14,7 14 7 28 15 NNE 1021,7 12 60 0,0
19.05.2018 15:00:00 21,0 4,5 26,1 27,5 18,9 14,7 16 9 29 15 NE 1021,8 10 60 0,0
19.05.2018 14:00:00 19,8 4,2 25,6 26,4 18,1 14,7 13 7 25 13 ESE 1022,2 12 60 0,0
19.05.2018 13:00:00 19,3 3,2 24,6 24,9 17,4 14,7 16 9 28 15 E 1022,5 11 60 0,0
19.05.2018 12:00:00 18,8 2,2 24,1 22,9 16,7 14,7 13 7 27 15 E 1022,7 20 60 0,0
19.05.2018 11:00:00 17,0 1,9 21,1 20,7 16,2 14,7 12 7 24 13 E 1022,8 26 60 0,0
19.05.2018 10:00:00 15,2 1,4 19,2 18,9 15,8 14,7 13 7 22 12 E 1022,6 18 60 0,0
19.05.2018 09:00:00 13,6 5,3 17,1 16,6 15,5 14,7 11 6 18 10 E 1022,4 21 60 0,0
19.05.2018 08:00:00 11,8 6,7 14,4 14,5 15,5 14,7 6 3 10 5 ENE 1022,2 31 60 0,0
19.05.2018 07:00:00 9,5 7,6 10,5 12,7 15,7 14,7 4 2 8 5 NE 1021,6 21 60 0,0
19.05.2018 06:00:00 5,7 5,7 4,3 12,1 16,0 14,7 3 1 5 3 NNW 1021,3 6 18 0,0
19.05.2018 05:00:00 5,7 5,7 2,9 12,6 16,3 14,7 2 1 6 3 N 1021,0 7 0 0,0
19.05.2018 04:00:00 6,3 6,3 5,0 13,2 16,6 14,7 4 2 6 4 WNW 1020,8 0,3 0 0,0
19.05.2018 03:00:00 7,2 7,2 5,7 13,4 16,9 14,7 4 2 6 3 WNW 1020,8 0,2 0 0,0
19.05.2018 02:00:00 8,8 8,8 5,1 13,8 17,2 14,7 4 2 6 4 WNW 1020,7 0,2 0 0,0
19.05.2018 01:00:00 9,1 9,1 5,3 14,5 17,6 14,7 4 2 7 4 WNW 1020,6 4,4 0 0,0
19.05.2018 00:00:00 9,6 9,6 6,0 15,3 17,9 14,7 5 3 8 4 W 1020,4 6 0 0,0
18.05.2018 23:00:00 10,6 10,2 8,3 16,1 18,2 14,7 6 4 11 6 WNW 1020,2 9 0 0,0
18.05.2018 22:00:00 11,6 10,7 9,6 16,9 18,4 14,7 7 4 11 6 W 1020,0 10 0 0,0
18.05.2018 21:00:00 12,4 11,2 10,9 18,1 18,6 14,7 8 4 13 7 WNW 1019,5 9 6 0,0
18.05.2018 20:00:00 14,4 11,8 14,2 19,2 18,6 14,7 10 5 23 12 WNW 1019,2 13 49 0,0
18.05.2018 19:00:00 15,6 12,0 16,6 19,6 18,6 14,7 14 8 24 13 WNW 1018,9 13 19 0,0
18.05.2018 18:00:00 14,7 12,0 15,2 19,8 18,6 14,7 13 7 23 12 WNW 1018,9 12 0 0,0
18.05.2018 17:00:00 14,8 11,8 15,7 20,5 18,5 14,7 13 7 22 12 WNW 1018,9 11 0 0,0
18.05.2018 16:00:00 15,1 11,7 17,2 21,2 18,2 14,7 10 6 24 13 NW 1019,0 10 0 0,0
18.05.2018 15:00:00 16,0 12,2 20,3 20,5 18,0 14,7 13 7 22 12 WNW 1019,0 11 1 0,0
18.05.2018 14:00:00 14,3 11,1 17,0 19,4 17,9 14,7 11 6 21 11 WNW 1019,1 10 0 0,0
18.05.2018 13:00:00 13,5 10,9 15,6 18,9 17,8 14,7 11 6 24 13 NW 1019,1 11 0 0,0
18.05.2018 12:00:00 13,4 10,9 14,9 18,5 17,7 14,7 13 7 26 14 WNW 1018,9 10 0 0,0
18.05.2018 11:00:00 13,1 10,6 14,7 17,8 17,6 14,7 13 7 24 13 WNW 1018,5 10 0 0,0
18.05.2018 10:00:00 12,3 10,3 13,9 17,2 17,7 14,7 13 7 24 13 WNW 1018,0 10 0 0,0
18.05.2018 09:00:00 11,7 9,7 12,5 16,7 17,8 14,7 15 8 26 14 W 1017,5 11 0 0,0
18.05.2018 08:00:00 11,6 9,3 12,3 16,4 17,9 14,7 16 8 25 13 W 1017,0 11 0 0,0
18.05.2018 07:00:00 10,9 8,9 11,2 16,2 18,1 14,7 16 9 25 13 W 1016,6 8 0 0,0
18.05.2018 06:00:00 10,8 9,0 10,8 16,3 18,3 14,7 18 10 29 15 W 1016,4 7 0 0,0
18.05.2018 05:00:00 11,3 9,4 11,2 16,4 18,6 14,7 14 8 27 15 WNW 1016,1 9 0 0,0
18.05.2018 04:00:00 11,7 10,2 11,7 16,5 18,9 14,7 14 8 24 13 WNW 1015,8 10 0 0,0
18.05.2018 03:00:00 10,9 10,2 10,6 16,4 19,3 14,7 10 5 17 9 WNW 1015,6 13 0 0,0
18.05.2018 02:00:00 10,7 9,6 8,5 17,1 19,7 14,7 7 4 13 7 WNW 1015,4 18 0 0,0
18.05.2018 01:00:00 11,7 10,0 10,1 17,9 20,1 14,7 9 5 14 8 WNW 1015,1 18 0 0,0
18.05.2018 00:00:00 13,8 10,0 11,7 18,8 20,5 14,7 7 4 19 10 NW 1014,7 24 0 0,0
17.05.2018 23:00:00 15,0 10,1 13,3 19,9 20,9 14,7 11 6 22 12 NW 1014,2 28 0 0,0
17.05.2018 22:00:00 16,4 11,7 14,9 21,1 21,2 14,7 10 5 26 14 NNW 1014,0 26 0 0,0

tt = Température de l'air
td = dewpoint
tt 5cm = Température de l'air 5cm
tt -5cm = Température de l'air -5cm
tt -20cm = Température de l'air -20cm
tt -100cm = Température de l'air -100cm
ff = Vitesse du vent
fx = gusts
dd = Direction du vent
ppp = reduced air pressure
vv = visibility
sd = Ensoleillement
rr = Quantités de précipitations

stations d'obs. à proximité